FAD3052 MDSI-MDSI

Flight info

Callsign FAD3052
Flight time 0h 9m
Altitude 800
Route VFR
Aircraft B06/L-SFG/C

Departure

Time 2026-04-21 22:27
Airport San Isidro Air Base (MDSI)

Arrival

Time 2026-04-21 22:37
Airport San Isidro Air Base (MDSI)
Time Latitude Longitude Altitude Speed Heading
2026-04-21 22:20 18.50232 -69.76813 116 ft 0 kts 232°
2026-04-21 22:22 18.50205 -69.76758 132 ft 34 kts 111°
2026-04-21 22:22 18.50156 -69.76612 175 ft 32 kts 112°
2026-04-21 22:23 18.50048 -69.76583 126 ft 40 kts 189°
2026-04-21 22:23 18.49658 -69.76743 204 ft 72 kts 208°
2026-04-21 22:23 18.49200 -69.77114 375 ft 95 kts 225°
2026-04-21 22:23 18.48908 -69.77717 559 ft 96 kts 280°
2026-04-21 22:24 18.49554 -69.78006 645 ft 115 kts
2026-04-21 22:24 18.50364 -69.77888 680 ft 122 kts
2026-04-21 22:24 18.51228 -69.77759 584 ft 124 kts 19°
2026-04-21 22:24 18.52015 -69.77391 549 ft 125 kts 33°
2026-04-21 22:25 18.52296 -69.76675 521 ft 108 kts 116°
2026-04-21 22:25 18.51652 -69.76412 407 ft 108 kts 180°
2026-04-21 22:25 18.50954 -69.76410 426 ft 83 kts 176°
2026-04-21 22:25 18.50502 -69.76413 278 ft 44 kts 186°
2026-04-21 22:26 18.50373 -69.76453 138 ft 2 kts 203°
2026-04-21 22:26 18.50379 -69.76449 135 ft 4 kts 206°
2026-04-21 22:26 18.50379 -69.76448 121 ft 8 kts 215°
2026-04-21 22:26 18.50134 -69.76559 159 ft 73 kts 202°
2026-04-21 22:27 18.49645 -69.76767 569 ft 68 kts 201°
2026-04-21 22:27 18.49226 -69.77048 943 ft 82 kts 224°
2026-04-21 22:27 18.49113 -69.77357 1045 ft 96 kts 256°
2026-04-21 22:27 18.49301 -69.78022 965 ft 96 kts 294°
2026-04-21 22:28 18.49465 -69.78658 959 ft 93 kts 263°
2026-04-21 22:28 18.49433 -69.79327 943 ft 94 kts 259°
2026-04-21 22:28 18.49365 -69.80020 887 ft 92 kts 257°
2026-04-21 22:28 18.49421 -69.80663 933 ft 89 kts 297°
2026-04-21 22:29 18.49959 -69.80845 967 ft 82 kts 34°
2026-04-21 22:29 18.49935 -69.80313 843 ft 85 kts 133°
2026-04-21 22:29 18.49438 -69.80132 876 ft 74 kts 197°
2026-04-21 22:29 18.49284 -69.80619 900 ft 84 kts 288°
2026-04-21 22:30 18.49775 -69.80879 939 ft 82 kts 16°
2026-04-21 22:30 18.49975 -69.80382 901 ft 82 kts 112°
2026-04-21 22:30 18.49633 -69.80090 840 ft 81 kts 163°
2026-04-21 22:31 18.49482 -69.80038 688 ft 83 kts 159°
2026-04-21 22:31 18.49012 -69.79809 592 ft 64 kts 152°
2026-04-21 22:31 18.48643 -69.79600 546 ft 56 kts 154°
2026-04-21 22:31 18.48327 -69.79542 486 ft 60 kts 220°
2026-04-21 22:32 18.48319 -69.80050 518 ft 83 kts 288°
2026-04-21 22:32 18.48817 -69.80395 556 ft 93 kts 339°
2026-04-21 22:32 18.49482 -69.80633 510 ft 106 kts 340°
2026-04-21 22:32 18.50010 -69.80526 597 ft 77 kts 88°
2026-04-21 22:33 18.49586 -69.80227 540 ft 88 kts 168°
2026-04-21 22:33 18.48952 -69.80045 505 ft 97 kts 166°
2026-04-21 22:33 18.48349 -69.79861 473 ft 78 kts 206°
2026-04-21 22:33 18.48410 -69.80276 500 ft 66 kts 331°
2026-04-21 22:34 18.48924 -69.80434 413 ft 78 kts 338°
2026-04-21 22:34 18.49437 -69.80601 415 ft 77 kts 339°
2026-04-21 22:34 18.49926 -69.80577 482 ft 70 kts 50°
2026-04-21 22:34 18.49743 -69.80257 449 ft 65 kts 152°
2026-04-21 22:35 18.49647 -69.79759 420 ft 89 kts 84°
2026-04-21 22:35 18.49795 -69.79108 491 ft 93 kts 77°
2026-04-21 22:35 18.49969 -69.78424 526 ft 98 kts 80°
2026-04-21 22:35 18.50446 -69.77888 453 ft 112 kts 21°
2026-04-21 22:36 18.51507 -69.77095 529 ft 95 kts 93°
2026-04-21 22:36 18.51102 -69.76660 533 ft 90 kts 173°
2026-04-21 22:36 18.50531 -69.76704 355 ft 62 kts 177°
2026-04-21 22:37 18.50295 -69.76654 185 ft 22 kts 168°
2026-04-21 22:37 18.50237 -69.76624 172 ft 3 kts 166°
2026-04-21 22:37 18.50220 -69.76609 156 ft 2 kts 176°
2026-04-21 22:37 18.50136 -69.76603 199 ft 51 kts 179°
2026-04-21 22:38 18.49609 -69.76590 319 ft 100 kts 137°
2026-04-21 22:38 18.50031 -69.76050 455 ft 112 kts 27°
2026-04-21 22:38 18.50705 -69.75734 586 ft 106 kts 21°
2026-04-21 22:38 18.51290 -69.76013 590 ft 103 kts 279°
2026-04-21 22:39 18.50890 -69.76511 491 ft 88 kts 195°
2026-04-21 22:39 18.50412 -69.76660 239 ft 49 kts 186°
2026-04-21 22:39 18.50223 -69.76592 214 ft 22 kts 101°
2026-04-21 22:39 18.50155 -69.76544 139 ft 22 kts 197°
2026-04-21 22:40 18.49957 -69.76621 122 ft 22 kts 171°
2026-04-21 22:40 18.49893 -69.76579 164 ft 11 kts 36°
2026-04-21 22:40 18.49903 -69.76569 112 ft 1 kts 358°
2026-04-21 22:40 18.49903 -69.76572 112 ft 0 kts 359°
2026-04-21 22:41 18.49902 -69.76574 121 ft 3 kts 46°
2026-04-21 22:41 18.49889 -69.76526 126 ft 10 kts 270°
2026-04-21 22:41 18.49901 -69.76578 118 ft 1 kts 11°
2026-04-21 22:41 18.49903 -69.76574 117 ft 1 kts 13°
2026-04-21 22:42 18.49906 -69.76573 112 ft 0 kts 13°
2026-04-21 22:46 18.50129 -69.76506 130 ft 75 kts 17°
2026-04-21 22:47 18.50711 -69.76287 233 ft 93 kts 19°
2026-04-21 22:47 18.51312 -69.76203 452 ft 89 kts 346°
2026-04-21 22:47 18.51696 -69.76667 356 ft 70 kts 276°
2026-04-21 22:47 18.51647 -69.77073 305 ft 50 kts 239°
2026-04-21 22:48 18.51487 -69.77222 219 ft 26 kts 140°
2026-04-21 22:48 18.51445 -69.77123 144 ft 6 kts 93°
2026-04-21 22:48 18.51450 -69.77081 123 ft 2 kts 84°
2026-04-21 22:48 18.51450 -69.77077 122 ft 1 kts 82°
2026-04-21 22:49 18.51453 -69.77073 114 ft 0 kts 83°
2026-04-21 22:50 18.51468 -69.76941 301 ft 50 kts 83°
2026-04-21 22:51 18.51325 -69.76795 294 ft 24 kts 127°
2026-04-21 22:51 18.51503 -69.76612 288 ft 66 kts 354°
2026-04-21 22:51 18.51756 -69.76732 263 ft 29 kts 251°
2026-04-21 22:51 18.51708 -69.76831 119 ft 0 kts 268°
2026-04-21 22:52 18.51633 -69.76944 335 ft 52 kts 173°
2026-04-21 22:52 18.51190 -69.76763 305 ft 72 kts 192°
2026-04-21 22:53 18.50885 -69.77195 256 ft 86 kts 257°
2026-04-21 22:53 18.50554 -69.77337 247 ft 64 kts 123°
2026-04-21 22:53 18.50490 -69.77191 172 ft 2 kts 111°
2026-04-21 22:53 18.50490 -69.77185 153 ft 0 kts 115°
2026-04-21 22:54 18.50491 -69.77184 156 ft 0 kts 104°
2026-04-21 22:54 18.50469 -69.77085 200 ft 19 kts 108°
2026-04-21 22:54 18.50256 -69.77067 195 ft 41 kts 153°
2026-04-21 22:54 18.50146 -69.76775 237 ft 32 kts
2026-04-21 22:55 18.50179 -69.76783 131 ft 2 kts 343°
2026-04-21 22:55 18.50181 -69.76785 116 ft 0 kts 351°
2026-04-21 22:55 18.50180 -69.76785 136 ft 2 kts 349°
2026-04-21 22:56 18.50107 -69.76763 269 ft 44 kts 186°
2026-04-21 22:56 18.49853 -69.77183 401 ft 97 kts 279°
2026-04-21 22:56 18.49968 -69.77858 599 ft 98 kts 251°
2026-04-21 22:56 18.50257 -69.78162 504 ft 114 kts 46°
2026-04-21 22:57 18.50923 -69.77652 457 ft 120 kts 32°
2026-04-21 22:57 18.51412 -69.77030 391 ft 113 kts 90°
2026-04-21 22:57 18.50878 -69.76757 334 ft 102 kts 195°
2026-04-21 22:57 18.50303 -69.76743 202 ft 72 kts 191°
2026-04-21 22:58 18.50133 -69.76798 129 ft 5 kts 296°
2026-04-21 22:58 18.50133 -69.76812 114 ft 0 kts 62°
2026-04-21 22:58 18.50131 -69.76812 114 ft 0 kts 59°
2026-04-21 22:59 18.50129 -69.76811 115 ft 0 kts 67°